USA 99

导读

USA 99是美国于1994年2月7日发射的军用侦察卫星,隶属于美国国家 Reconnaissance Office(NRO),主要承担全球光学成像侦察任务。作为KH-11“锁眼”系列卫星的一员,它运行在近地轨道,具备高分辨率对地观测能力,可获取全球重点区域的高清图像情报,为美国军方和情报部门提供战略、战术层面的信息支持,在全球军事监测、地缘态势感知中发挥关键作用。

基本信息
目录编号:
22988
目录名称:
USA 99
国际标识:
1994-009A
轨道中心:
EARTH
卫星名称:
USA 99
卫星全名:
--
卫星状态:
在轨 (已飞行11816 天)
发射日期:
1994-02-07 UTC
国别 :
美国 (US)
星等 :
--
轨道信息
数据来源 国际轨道数据 AOE轨道数据
星历时间 2026-06-15T03:55:39+0800
6小时前
查看轨道信息
2026-06-15T05:00:00+0800
5小时前
查看轨道信息
半长轴 42604.723km 42604.695km
偏心率 0.0001109 0.0001088
轨道倾角 17.623° 17.624°
近地点辐角 217.748° 219.947°
升交点赤经 27.731° 27.731°
平近点角 334.697° 348.381°
近地点 36221.861km 36221.922km
远地点 36231.311km 36231.194km
周期 1458.634分钟 1458.633分钟
每日圈数 0.987225 0.987226
详细信息
使用方式:
暂无
2D轨道图
3D轨道图
轨道高度分析图
轨道倾角分析图
轨道综合分析图
查看轨道综合分析图